Location: *
(41.0833°N, 73.4167°W)
Time: 02:43:00
(UTC+00:00)

ATLAS 2AS CENTAUR R/B - Pass Details

Date: 22 October 2019
Orbit: 926 x 1286 km, 63.7° (Epoch: 01 November)

Event Time Altitude Azimuth Distance (km) Brightness Sun altitude
Exits shadow 09:43:34 23° 289° (WNW) 2,454 4.0 -17.5°
Maximum altitude 09:46:44 29° 324° (NW) 2,167 4.0 -16.9°
Drops below altitude 10° 09:53:30 10° 22° (NNE) 3,267 5.5 -15.6°
Sets 09:56:47 0° 33° (NNE) 4,207 6.3 -15.0°
